Temp
76 76 77 77 78 78 78 78 78 78 78 78 77 78 77 78 79 79 79 79 79 79 78 78 78 78 80 78 78 78 78 77 77 77 77 77 77 77 80 79 78 77
76 77 79 78 78 79 78 79 78 79 78 78 78 79 78 79 79 79 79 79 79 79 79 79 78 78 78 78 77 78 77 77 77 80 77 77 77 77 79 78 79 77
77 77 78 77 78 78 80 80 79 79 79 79 80 79 80 80 80 79 79 80 79 80 79 79 78 78 79 78 77 78 79 77 77 78 78 77 77 77 78 79 79 79
77 78 79 79 79 79 79 79 78 79 80 79 80 81 82 84 81 80 79 82 79 79 79 79 79 79 78 78 77 77 77 77 77 77 77 77 77 77 78 78 78 79
78 77 78 79 79 79 79 79 80 79 80 80 81 81 81 81 80 80 80 80 79 79 79 79 79 79 78 78 78 78 77 77 77 76 76 76 77 77 79 78 77 78
78 78 78 79 79 79 79 79 80 80 80 81 81 81 81 81 81 81 81 81 80 80 80 80 79 79 79 78 78 78 78 78 78 77 77 76 77 77 80 79 78 77
78 78 78 79 79 79 79 79 80 80 80 81 80 81 82 81 81 81 81 81 81 80 81 80 79 79 79 78 78 77 77 78 77 77 77 77 77 77 78 78 78 76
79 79 79 79 80 79 79 79 79 79 81 80 81 81 81 82 81 82 81 81 81 80 80 80 79 79 80 79 78 77 77 79 78 77 77 77 76 76 77 78 77 76
80 80 79 79 81 81 80 82 81 80 81 81 81 82 81 81 82 82 81 81 81 80 79 79 79 79 79 79 78 78 77 78 79 77 77 77 77 77 77 77 77 76
77 79 81 81 81 82 82 82 83 82 81 81 82 83 82 81 81 82 81 80 80 79 78 79 79 79 79 79 79 79 78 78 78 77 78 78 78 78 78 77 77 77
76 79 80 81 82 82 83 83 84 84 82 82 82 82 83 82 80 81 80 79 81 80 79 78 79 79 79 79 80 80 79 79 78 77 77 78 78 78 80 78 78 77
73 74 75 77 80 83 84 84 84 84 84 83 83 83 83 83 82 81 81 80 80 81 80 79 78 79 79 79 80 80 79 79 79 79 78 78 78 78 79 79 79 78
73 73 73 74 74 75 79 81 81 83 85 85 85 85 83 83 83 82 81 81 80 81 81 80 79 79 78 79 79 80 79 79 79 79 79 78 79 79 80 80 80 80
73 73 73 73 74 75 75 76 77 77 79 79 82 84 85 84 84 83 83 82 81 81 81 81 79 78 78 78 79 79 79 79 79 79 79 79 79 79 80 81 81 81
73 73 73 73 74 74 74 75 76 76 76 77 78 81 85 86 85 85 83 82 82 81 81 81 80 80 79 79 78 78 79 79 78 78 79 78 78 79 79 79 81 82
73 73 73 74 74 73 73 73 74 77 78 77 77 78 78 79 80 82 84 83 82 81 81 82 81 82 81 77 78 80 79 81 79 78 78 78 78 78 79 79 81 82
74 73 73 73 73 73 73 73 74 76 76 75 75 74 74 76 78 80 81 83 83 83 82 82 83 84 77 71 72 75 81 79 79 78 77 77 77 77 77 79 80 80
72 73 73 73 73 74 74 74 75 75 74 74 74 75 74 76 78 78 77 79 83 83 83 83 83 80 72 69 70 70 76 81 80 80 79 77 77 78 78 78 79 80
71 72 72 72 73 73 73 74 74 74 74 75 74 74 75 74 75 76 77 76 79 79 82 83 83 76 70 69 69 69 69 77 82 81 80 79 78 77 78 77 77 77
71 71 71 72 73 73 73 73 73 72 73 74 74 73 73 74 76 76 75 74 76 76 78 81 82 78 69 67 67 67 68 70 81 81 80 80 80 79 80 78 77 77
70 70 71 71 72 73 72 72 72 71 72 73 73 73 73 73 74 75 75 75 77 77 76 79 84 75 68 65 65 65 66 68 79 82 81 81 81 81 79 79 78 78
71 71 70 71 71 71 72 72 71 71 72 73 73 73 74 74 74 75 76 76 76 76 77 78 82 72 67 64 63 63 65 72 76 78 80 81 81 80 80 80 79 79
70 71 71 71 70 70 70 71 71 71 72 73 72 73 73 73 74 75 74 75 76 76 76 76 79 68 63 61 61 62 64 72 74 77 78 79 80 80 80 80 80 79
70 71 71 71 70 70 70 70 71 71 72 73 72 72 72 73 74 74 75 75 75 76 78 78 79 69 61 62 59 59 66 73 74 75 77 77 78 80 80 79 80 82
70 70 71 71 70 71 71 71 71 71 72 72 72 72 72 73 73 73 74 75 77 78 79 78 75 73 62 61 61 57 62 70 73 74 75 76 77 78 79 79 79 81
68 69 69 70 70 70 71 71 71 71 71 72 72 72 72 72 73 73 73 75 77 77 79 78 75 75 75 62 58 55 59 71 71 72 73 75 76 77 77 78 79 79
MSLP
1019.50 1019.62 1019.78 1019.90 1019.94 1019.98 1020.14 1020.38 1020.42 1020.54 1020.62 1020.66 1020.86 1020.86 1020.86 1020.74 1020.66 1020.74 1020.82 1020.90 1021.02 1021.10 1021.14 1021.18 1021.18 1021.30 1021.26 1021.30 1021.34 1021.46 1021.62 1021.70 1021.70 1021.66 1021.74 1021.82 1021.98 1022.10 1022.22 1022.14 1022.14 1022.26
1019.46 1019.50 1019.58 1019.70 1019.78 1019.78 1019.90 1019.94 1020.18 1020.30 1020.46 1020.46 1020.46 1020.50 1020.50 1020.54 1020.54 1020.58 1020.74 1020.90 1020.90 1020.98 1020.98 1021.06 1021.10 1021.14 1021.26 1021.34 1021.42 1021.58 1021.70 1021.74 1021.86 1021.58 1021.86 1021.98 1021.98 1022.02 1022.14 1022.10 1022.14 1022.02
1019.26 1019.42 1019.54 1019.74 1019.86 1019.86 1019.82 1019.78 1019.90 1020.06 1020.22 1020.18 1020.18 1020.26 1020.38 1020.30 1020.46 1020.42 1020.54 1020.70 1020.86 1020.86 1020.90 1020.90 1020.98 1021.02 1021.14 1021.22 1021.34 1021.46 1021.62 1021.74 1021.90 1021.70 1021.86 1021.98 1021.90 1022.06 1021.98 1021.98 1022.06 1022.02
1019.06 1019.18 1019.34 1019.42 1019.54 1019.70 1019.70 1019.86 1019.94 1019.94 1020.02 1020.22 1020.22 1020.06 1020.06 1020.10 1020.22 1020.38 1020.46 1020.50 1020.70 1020.78 1020.78 1020.86 1020.90 1020.94 1021.06 1021.14 1021.26 1021.42 1021.46 1021.58 1021.58 1021.62 1021.86 1021.86 1021.86 1021.86 1021.90 1021.86 1021.94 1021.94
1018.90 1019.02 1019.10 1019.14 1019.26 1019.34 1019.54 1019.78 1019.94 1019.94 1019.98 1019.94 1019.90 1019.86 1019.94 1020.02 1020.18 1020.30 1020.42 1020.50 1020.54 1020.66 1020.74 1020.86 1020.82 1020.90 1020.94 1021.10 1021.18 1021.42 1021.42 1021.54 1021.50 1021.62 1021.86 1021.98 1021.78 1021.82 1021.78 1021.78 1021.94 1022.02
1018.70 1018.74 1018.82 1018.94 1019.06 1019.30 1019.54 1019.66 1019.70 1019.78 1019.86 1019.94 1019.86 1019.74 1019.82 1019.82 1019.98 1020.10 1020.22 1020.42 1020.46 1020.50 1020.62 1020.70 1020.82 1020.82 1020.90 1021.06 1021.18 1021.34 1021.42 1021.54 1021.50 1021.58 1021.82 1021.98 1021.86 1021.66 1021.66 1021.66 1021.82 1022.02
1018.74 1018.74 1018.82 1018.78 1018.94 1019.02 1019.30 1019.42 1019.46 1019.50 1019.62 1019.62 1019.62 1019.78 1019.70 1019.90 1019.94 1019.94 1019.98 1020.06 1020.26 1020.38 1020.50 1020.62 1020.74 1020.82 1020.78 1020.98 1021.18 1021.34 1021.34 1021.38 1021.46 1021.58 1021.82 1021.82 1021.78 1021.74 1021.58 1021.66 1021.78 1021.94
1018.54 1018.54 1018.62 1018.70 1018.86 1018.94 1019.14 1019.30 1019.34 1019.42 1019.38 1019.46 1019.70 1019.58 1019.58 1019.74 1019.82 1019.78 1019.78 1019.86 1020.06 1020.18 1020.26 1020.38 1020.50 1020.62 1020.66 1020.82 1021.10 1021.30 1021.34 1021.26 1021.42 1021.54 1021.70 1021.74 1021.70 1021.82 1021.62 1021.58 1021.66 1021.90
1018.18 1018.38 1018.54 1018.70 1018.82 1018.90 1019.06 1019.06 1019.18 1019.26 1019.18 1019.42 1019.46 1019.46 1019.42 1019.54 1019.62 1019.66 1019.74 1019.78 1019.90 1019.98 1020.10 1020.22 1020.34 1020.46 1020.50 1020.66 1020.90 1021.06 1021.22 1021.26 1021.22 1021.38 1021.54 1021.70 1021.78 1021.70 1021.62 1021.50 1021.70 1021.74
1018.10 1018.14 1018.34 1018.58 1018.82 1018.78 1018.94 1018.90 1018.90 1019.02 1019.02 1019.18 1019.18 1019.14 1019.34 1019.34 1019.34 1019.46 1019.62 1019.78 1019.90 1019.98 1020.02 1020.06 1020.18 1020.26 1020.38 1020.46 1020.66 1020.82 1021.02 1021.10 1021.10 1021.14 1021.22 1021.34 1021.42 1021.46 1021.42 1021.50 1021.58 1021.70
1018.22 1018.10 1018.30 1018.46 1018.62 1018.70 1018.78 1018.78 1018.78 1018.82 1018.86 1018.98 1019.02 1019.06 1019.02 1019.14 1019.26 1019.22 1019.46 1019.66 1019.82 1019.86 1019.94 1019.98 1019.98 1020.06 1020.26 1020.34 1020.38 1020.46 1020.66 1020.82 1020.90 1020.94 1020.98 1021.02 1021.02 1021.06 1021.06 1021.18 1021.34 1021.46
1018.46 1018.34 1018.34 1018.62 1018.78 1018.62 1018.54 1018.66 1018.66 1018.74 1018.78 1018.74 1018.74 1018.90 1018.90 1018.94 1019.14 1019.22 1019.26 1019.46 1019.46 1019.54 1019.58 1019.66 1019.70 1019.82 1019.94 1020.06 1020.18 1020.26 1020.42 1020.50 1020.58 1020.70 1020.74 1020.78 1020.82 1020.82 1020.82 1020.82 1021.02 1021.06
1018.42 1018.58 1018.34 1018.38 1018.62 1018.98 1018.86 1018.42 1018.50 1018.58 1018.58 1018.66 1018.50 1018.58 1018.78 1018.90 1018.94 1019.10 1019.06 1019.14 1019.22 1019.26 1019.38 1019.42 1019.50 1019.54 1019.70 1019.78 1019.86 1019.98 1020.14 1020.34 1020.42 1020.46 1020.54 1020.58 1020.54 1020.54 1020.46 1020.50 1020.54 1020.62
1018.22 1018.26 1018.34 1018.14 1018.22 1018.30 1018.54 1018.90 1018.58 1018.38 1018.46 1018.38 1018.34 1018.54 1018.50 1018.50 1018.70 1018.86 1018.82 1018.90 1018.98 1019.06 1018.98 1019.02 1019.22 1019.34 1019.38 1019.42 1019.50 1019.62 1019.82 1019.98 1020.10 1020.22 1020.34 1020.38 1020.34 1020.30 1020.22 1020.22 1020.22 1020.26
1018.26 1018.26 1018.22 1018.42 1018.22 1017.94 1018.14 1018.62 1019.10 1018.94 1018.54 1018.38 1018.22 1018.22 1018.18 1018.14 1018.06 1018.14 1018.50 1018.70 1018.66 1018.74 1018.78 1018.78 1018.98 1019.02 1018.98 1019.06 1019.22 1019.30 1019.34 1019.58 1019.70 1019.86 1019.98 1020.18 1020.18 1020.14 1020.10 1020.06 1019.98 1019.94
1018.42 1018.46 1018.38 1018.26 1018.26 1018.30 1018.22 1018.42 1018.94 1019.18 1018.86 1018.58 1018.38 1018.14 1017.94 1017.90 1018.02 1018.06 1018.10 1018.26 1018.42 1018.46 1018.46 1018.54 1018.62 1018.50 1018.42 1018.42 1018.46 1018.66 1018.90 1019.06 1019.26 1019.42 1019.62 1019.78 1019.98 1020.10 1020.02 1019.90 1019.82 1019.74
1018.38 1018.38 1018.30 1018.26 1018.10 1017.98 1017.86 1017.94 1018.46 1018.86 1018.82 1018.58 1018.62 1018.54 1018.34 1018.06 1017.86 1018.02 1018.06 1018.06 1018.10 1018.10 1018.26 1018.22 1018.14 1018.02 1017.98 1018.10 1018.18 1018.14 1018.30 1018.62 1018.90 1019.06 1019.18 1019.42 1019.66 1019.86 1019.98 1019.82 1019.62 1019.50
1018.58 1018.38 1018.26 1018.14 1018.14 1018.22 1018.18 1018.10 1018.34 1018.78 1018.94 1018.62 1018.42 1018.38 1018.26 1018.10 1017.94 1017.78 1017.66 1017.66 1017.82 1017.98 1018.06 1017.94 1017.78 1017.54 1017.66 1017.82 1017.90 1017.98 1017.98 1018.18 1018.42 1018.70 1018.86 1019.10 1019.26 1019.46 1019.54 1019.58 1019.54 1019.42
1018.82 1018.66 1018.50 1018.42 1018.38 1018.34 1018.34 1018.34 1018.42 1018.46 1018.46 1018.42 1018.38 1018.18 1018.06 1018.06 1017.94 1017.78 1017.62 1017.46 1017.46 1017.62 1017.82 1017.78 1017.70 1017.34 1017.38 1017.42 1017.58 1017.70 1017.86 1017.94 1018.10 1018.30 1018.58 1018.78 1018.90 1019.02 1019.14 1019.26 1019.30 1019.38
1018.90 1018.82 1018.78 1018.66 1018.50 1018.38 1018.34 1018.46 1018.46 1018.42 1018.34 1018.26 1018.30 1018.34 1018.30 1018.14 1017.90 1017.94 1017.78 1017.66 1017.42 1017.38 1017.38 1017.34 1017.34 1017.18 1017.26 1017.26 1017.26 1017.38 1017.58 1017.94 1017.98 1018.10 1018.30 1018.38 1018.46 1018.54 1018.62 1018.78 1018.86 1019.02
1019.02 1018.90 1018.90 1018.90 1018.82 1018.50 1018.42 1018.50 1018.54 1018.46 1018.34 1018.22 1018.26 1018.34 1018.34 1018.30 1018.14 1017.98 1017.78 1017.78 1017.78 1017.58 1017.38 1017.14 1016.90 1016.70 1016.90 1017.10 1017.22 1017.30 1017.42 1017.74 1017.82 1017.86 1017.98 1018.06 1017.98 1017.98 1018.06 1018.10 1018.18 1018.26
1019.10 1019.06 1018.90 1018.98 1019.26 1019.02 1018.66 1018.46 1018.46 1018.46 1018.42 1018.22 1018.14 1018.10 1018.02 1017.94 1017.86 1017.74 1017.74 1017.70 1017.54 1017.50 1017.50 1017.34 1016.70 1016.38 1016.46 1016.70 1016.98 1017.26 1017.38 1017.74 1017.70 1017.74 1017.70 1017.66 1017.62 1017.54 1017.58 1017.54 1017.58 1017.74
1019.14 1019.10 1019.06 1019.02 1019.14 1019.46 1019.18 1018.66 1018.46 1018.42 1018.30 1018.06 1018.14 1018.06 1018.06 1018.02 1017.94 1017.78 1017.62 1017.58 1017.46 1017.30 1017.30 1017.14 1016.78 1016.58 1016.58 1016.74 1016.94 1017.06 1017.50 1017.62 1017.54 1017.54 1017.46 1017.42 1017.30 1017.14 1017.14 1017.14 1017.22 1017.26
1019.42 1019.34 1019.34 1019.26 1019.22 1019.34 1019.34 1018.90 1018.42 1018.18 1018.18 1017.98 1018.10 1018.10 1018.06 1017.94 1017.78 1017.74 1017.54 1017.38 1017.34 1017.26 1016.98 1016.94 1016.78 1016.78 1016.78 1016.62 1016.66 1016.78 1016.98 1017.14 1017.18 1017.34 1017.34 1017.30 1017.14 1016.90 1016.82 1016.82 1016.78 1016.74
1019.38 1019.26 1019.22 1019.06 1019.02 1018.90 1018.74 1018.62 1018.38 1018.22 1017.98 1017.82 1017.82 1017.86 1017.86 1017.70 1017.62 1017.66 1017.50 1017.30 1017.10 1016.94 1016.66 1016.70 1016.78 1016.78 1016.62 1016.42 1016.30 1016.38 1016.70 1016.90 1017.10 1017.34 1017.50 1017.34 1017.18 1017.06 1016.70 1016.66 1016.54 1016.42
1019.34 1019.38 1019.26 1019.18 1019.06 1018.86 1018.62 1018.46 1018.22 1018.10 1018.02 1017.86 1017.70 1017.66 1017.74 1017.66 1017.58 1017.50 1017.46 1017.26 1016.94 1016.82 1016.70 1016.54 1016.70 1016.50 1016.18 1016.30 1016.42 1016.46 1016.42 1016.50 1016.82 1017.18 1017.38 1017.18 1017.06 1017.06 1017.02 1016.70 1016.50 1016.38
Wind_Speed
4 3 6 6 6 6 6 6 6 6 6 6 6 5 5 5 4 4 4 3 3 4 4 4 3 3 3 2 2 3 3 4 3 2 2 2 3 3 4 4 4 4
5 5 5 5 5 5 6 6 6 7 7 6 6 5 5 4 5 5 5 4 4 4 4 4 4 4 3 3 3 4 4 3 3 2 3 3 4 3 5 4 4 4
5 5 6 6 6 6 7 6 6 6 7 6 6 5 6 5 5 5 5 5 5 5 4 4 4 3 3 3 3 3 5 3 4 3 3 4 4 4 4 4 4 4
7 6 6 6 6 7 6 6 5 6 5 6 7 7 7 6 6 6 6 6 6 5 4 4 4 4 3 3 3 3 3 3 3 3 3 3 3 3 5 3 3 4
8 6 5 6 5 6 5 6 6 6 6 7 6 6 7 7 7 7 7 7 6 5 5 5 4 4 4 3 3 4 3 3 2 2 3 3 3 3 4 3 3 4
6 5 5 6 6 6 7 7 7 6 6 6 8 6 6 7 7 8 8 8 6 6 6 5 5 5 4 4 4 4 4 4 3 3 3 3 4 3 3 3 3 4
7 6 6 6 6 6 7 7 6 6 6 6 5 6 6 6 7 8 8 8 8 7 7 6 6 6 5 4 5 5 5 4 4 3 4 4 3 4 3 3 3 3
7 6 6 5 6 6 6 6 7 7 7 6 6 6 6 7 8 7 8 9 8 8 7 7 7 6 6 5 6 5 5 4 4 5 5 4 3 4 4 3 3 3
7 7 6 7 8 7 7 7 7 6 6 7 7 6 5 6 7 7 7 8 8 8 8 7 7 7 6 6 6 6 6 5 5 5 5 5 5 5 5 4 4 4
5 5 8 8 8 8 8 8 7 6 6 7 8 7 7 6 6 7 7 7 8 7 7 7 7 7 7 7 7 7 7 7 6 5 5 6 6 6 5 5 5 4
1 2 3 8 8 6 8 8 7 8 6 8 7 8 8 7 6 6 7 7 8 8 7 7 7 7 7 7 7 6 7 7 6 6 6 6 7 7 6 6 6 6
1 2 6 4 4 6 8 6 6 7 7 7 8 8 7 8 8 6 7 9 8 8 8 8 7 7 8 8 8 7 7 7 7 7 7 6 6 6 6 6 6 6
4 2 3 4 4 6 7 4 3 4 8 9 8 9 8 8 8 8 7 8 9 8 9 8 8 7 8 8 8 8 8 8 8 7 7 6 6 7 7 7 7 6
3 2 1 3 4 2 2 6 1 2 1 3 5 8 10 10 9 9 9 8 8 8 9 8 8 8 8 8 8 8 8 8 8 8 7 7 6 6 7 7 7 7
1 3 4 2 2 4 2 2 8 6 3 2 2 5 7 8 9 11 10 10 9 9 9 8 8 9 8 8 9 9 8 8 8 8 8 8 7 7 6 7 6 7
3 3 4 4 5 5 6 3 6 9 6 5 3 2 4 5 4 6 9 11 11 11 10 9 9 8 10 15 13 10 9 9 8 8 8 7 7 7 7 7 7 7
2 4 4 4 3 3 4 7 7 9 7 4 2 2 3 1 4 4 5 7 10 11 11 10 9 9 15 16 17 17 11 9 9 8 7 7 7 7 8 8 7 7
3 2 2 2 3 3 4 6 7 7 5 3 3 3 3 3 3 5 5 5 5 7 10 10 10 13 16 16 17 18 15 10 8 8 7 7 7 7 7 7 8 8
3 3 3 2 1 1 1 5 5 4 4 3 3 3 3 4 5 4 4 4 5 6 8 9 9 14 16 18 18 18 18 14 8 8 8 8 8 8 7 7 7 7
4 4 4 4 3 1 2 1 1 1 1 1 1 1 2 4 4 5 4 3 3 5 5 6 8 11 15 17 18 19 18 14 9 9 8 8 8 9 8 8 8 8
4 4 5 6 6 3 2 0 0 1 1 2 1 2 3 4 5 4 4 3 4 3 3 5 7 12 14 17 17 18 18 14 10 9 8 9 9 9 10 10 9 9
3 3 3 4 5 5 3 3 2 2 2 2 1 2 3 4 5 4 4 4 3 3 4 5 5 8 11 15 17 17 17 10 9 10 10 10 10 10 10 9 9 9
4 5 4 3 4 5 5 3 3 3 2 2 2 3 3 3 4 4 3 3 3 3 5 5 5 2 1 6 12 15 11 8 8 9 9 10 11 10 10 10 9 10
4 3 3 3 3 2 3 3 2 2 2 2 2 3 4 4 4 5 4 3 3 4 5 6 4 3 4 2 6 12 12 10 8 8 9 10 10 10 9 9 10 14
5 5 5 6 5 5 3 2 3 3 3 2 2 3 4 4 4 4 5 4 4 5 7 7 3 2 9 10 9 8 8 6 6 6 8 8 8 9 9 8 9 11
3 4 4 4 5 6 4 4 4 4 5 4 4 3 4 4 4 4 6 5 4 5 6 4 3 4 6 10 10 9 11 6 5 6 8 9 8 8 8 8 9 9
Wind_Direction
178 193 182 190 179 177 176 176 184 182 190 190 192 199 194 200 193 191 204 198 206 215 220 215 203 207 211 197 203 203 204 219 224 229 251 266 282 288 298 305 315 281
187 193 189 185 181 178 178 179 181 184 189 191 197 193 202 192 199 187 200 204 205 217 210 214 204 198 197 193 198 188 203 202 225 232 241 254 262 281 280 283 289 298
191 190 188 181 186 185 183 185 180 187 188 196 191 190 197 197 197 194 198 199 201 210 196 200 194 194 192 193 182 182 187 191 213 232 219 237 253 268 269 281 295 293
197 189 188 182 186 186 187 181 191 192 192 191 197 195 195 197 191 196 199 200 194 199 196 194 192 189 187 185 179 188 183 190 201 189 207 234 249 250 270 280 294 308
191 192 190 180 182 187 185 189 193 199 199 201 200 197 195 190 191 194 194 197 191 193 193 196 195 194 190 188 188 200 207 209 221 183 194 228 248 241 258 265 292 310
192 190 190 184 181 181 189 197 201 197 205 206 208 201 202 192 189 189 190 190 192 192 192 195 193 201 189 193 194 204 207 211 228 204 213 228 249 248 254 268 297 304
197 192 196 191 189 187 188 197 206 205 204 209 204 209 202 198 192 189 187 189 189 192 193 195 197 199 196 187 193 206 209 206 214 204 212 230 225 255 266 267 275 290
195 196 195 197 197 198 198 197 204 208 209 209 209 214 200 201 199 196 191 189 189 193 194 196 198 200 201 189 197 205 216 207 206 204 212 226 225 237 246 245 246 261
191 190 195 200 205 205 210 210 203 207 208 208 214 215 205 202 200 200 198 194 193 192 195 196 196 200 201 197 202 202 209 215 207 202 206 216 221 230 236 242 249 253
168 197 195 200 209 211 215 217 215 206 203 209 210 210 210 209 201 197 196 199 199 195 194 197 198 200 201 202 204 204 209 212 213 207 208 212 215 220 227 227 235 246
131 138 202 210 209 218 220 218 221 217 210 212 206 210 211 206 206 197 192 197 203 202 201 199 200 201 204 206 207 205 207 214 216 214 214 214 216 220 222 219 223 225
99 81 77 41 312 242 218 219 223 221 221 219 212 211 211 210 204 202 196 200 205 206 206 208 204 204 206 208 207 207 208 212 217 219 222 220 222 221 222 218 219 223
153 161 134 113 85 14 321 239 212 242 225 221 216 214 209 208 210 209 209 202 206 205 206 206 205 205 207 209 209 208 207 209 216 221 223 226 228 227 225 222 222 224
141 139 253 150 144 127 340 323 308 134 216 229 219 226 214 206 207 210 214 212 210 209 210 204 201 202 204 206 205 204 204 209 211 215 220 226 231 229 228 226 222 224
144 134 136 134 167 148 143 340 322 302 254 238 197 201 223 225 212 205 207 213 216 213 213 209 204 205 201 201 203 206 203 206 206 210 215 223 229 232 229 230 230 226
165 175 170 174 153 152 140 130 287 284 264 248 231 221 198 195 214 224 216 210 212 214 213 211 213 212 210 203 200 200 204 209 207 206 209 214 221 230 236 230 232 230
151 165 164 155 154 184 133 142 202 240 240 214 275 316 308 267 182 195 220 230 221 214 212 213 215 218 215 208 207 206 203 206 207 211 206 209 214 220 233 238 241 241
19 48 113 141 159 181 179 180 192 202 211 196 192 245 255 274 227 200 197 203 217 231 227 220 218 217 213 212 212 213 211 210 212 215 213 211 213 217 227 232 239 242
16 23 28 43 84 170 218 205 197 176 178 189 212 233 259 238 241 229 213 205 199 203 222 230 232 224 214 212 213 214 215 215 219 220 221 223 218 219 220 223 227 236
18 22 18 5 359 18 55 42 143 176 225 266 290 323 303 287 279 266 267 253 225 209 215 224 227 234 221 217 215 214 215 212 225 222 226 230 229 225 224 221 219 220
15 24 26 9 351 356 33 60 265 257 249 244 244 280 292 286 285 284 266 269 291 287 247 223 224 224 219 221 220 217 217 208 220 225 226 230 232 231 229 227 223 219
6 11 17 32 353 341 358 16 8 352 318 310 292 272 271 271 272 257 267 278 265 257 268 267 264 246 226 216 217 220 219 212 219 221 225 229 230 231 232 233 232 228
4 14 2 7 9 344 332 350 359 351 344 318 305 293 284 277 274 272 269 264 266 258 249 252 249 292 75 218 221 224 216 221 221 225 229 230 233 231 231 232 233 231
356 356 352 351 340 345 310 317 343 340 333 313 311 303 299 290 286 289 281 258 258 261 257 263 248 138 58 42 200 212 207 216 219 222 230 232 237 239 235 236 233 232
356 355 350 344 344 342 331 357 3 346 315 304 284 275 280 286 289 286 284 274 265 264 265 263 267 169 184 211 216 199 187 212 218 229 243 243 245 246 244 242 244 243
358 360 350 349 340 334 332 357 354 346 336 320 311 289 290 291 291 286 291 292 286 276 279 276 245 252 237 217 208 209 197 189 191 202 226 239 242 247 252 249 247 251